Temperature
11 11 10 9 9 8 7 6 6 6 5 5 4 3 3 2 2 2 1 1 -0 -1 -2 -3 -4 -4 -5 -5 -5 -6 -6 -6 -7 -6 -6 -6 -6 -6 -6 -6 -7 -7 -7
10 10 9 9 8 7 6 6 5 5 4 3 3 2 2 2 1 1 0 -0 -1 -2 -3 -4 -5 -5 -6 -6 -6 -7 -7 -7 -7 -7 -7 -7 -7 -7 -7 -7 -7 -8 -8
9 9 8 7 7 6 5 5 5 4 3 2 2 2 1 1 1 0 -1 -1 -2 -3 -4 -5 -6 -6 -7 -7 -7 -7 -7 -7 -7 -7 -7 -7 -7 -7 -7 -8 -8 -8 -9
8 8 7 6 6 5 4 4 4 3 2 2 1 1 1 0 -0 -0 -1 -2 -3 -4 -5 -6 -6 -7 -7 -8 -8 -8 -8 -8 -8 -8 -7 -7 -7 -7 -8 -8 -9 -9 -9
7 7 6 5 5 4 4 3 2 2 1 1 1 0 -0 -0 -1 -1 -3 -4 -5 -5 -6 -6 -7 -7 -8 -8 -8 -8 -8 -8 -8 -8 -8 -7 -8 -8 -9 -9 -9 -9 -9
6 6 5 4 4 3 3 2 2 1 1 0 -0 -0 -1 -1 -2 -3 -4 -5 -6 -6 -7 -7 -7 -8 -8 -8 -8 -8 -8 -8 -8 -8 -8 -8 -9 -9 -9 -10 -10 -10 -10
5 4 4 3 3 3 2 1 1 1 0 -0 -1 -1 -2 -2 -3 -4 -5 -6 -6 -7 -7 -8 -8 -9 -9 -9 -9 -8 -8 -8 -8 -8 -9 -9 -10 -10 -10 -10 -10 -10 -10
4 3 3 3 2 2 1 0 0 -0 -1 -1 -2 -2 -3 -3 -4 -5 -6 -7 -7 -8 -8 -9 -9 -9 -9 -9 -9 -8 -8 -9 -9 -10 -10 -10 -10 -10 -10 -10 -11 -11 -11
3 3 2 2 2 1 0 -0 -1 -1 -1 -2 -2 -3 -4 -4 -5 -6 -8 -8 -8 -8 -9 -9 -9 -9 -9 -9 -8 -9 -9 -10 -10 -10 -10 -10 -10 -11 -11 -11 -11 -11 -11
2 2 2 1 1 0 -0 -1 -1 -2 -2 -3 -3 -4 -4 -5 -6 -8 -9 -9 -9 -9 -9 -9 -9 -10 -9 -9 -9 -10 -10 -10 -10 -10 -10 -10 -10 -10 -11 -11 -12 -12 -12
2 1 1 0 -0 -1 -1 -2 -2 -3 -3 -3 -4 -4 -5 -6 -7 -8 -9 -9 -9 -9 -9 -10 -10 -10 -9 -10 -10 -11 -11 -10 -11 -11 -11 -11 -11 -11 -11 -11 -11 -11 -12
1 1 0 -0 -1 -2 -2 -2 -3 -3 -3 -4 -4 -5 -6 -7 -8 -9 -9 -9 -9 -9 -10 -10 -10 -10 -10 -11 -11 -11 -11 -11 -11 -12 -12 -12 -11 -11 -11 -11 -10 -10 -10
0 -0 -1 -1 -2 -2 -3 -3 -3 -3 -4 -5 -6 -7 -8 -8 -9 -9 -10 -9 -10 -10 -10 -10 -10 -11 -11 -11 -11 -11 -11 -12 -12 -12 -12 -12 -11 -11 -11 -11 -10 -10 -10
-1 -1 -2 -2 -2 -3 -3 -3 -4 -4 -5 -6 -8 -9 -9 -9 -9 -10 -10 -10 -10 -10 -10 -11 -11 -11 -11 -11 -11 -11 -11 -12 -12 -12 -12 -11 -11 -11 -11 -11 -11 -10 -10
-1 -2 -2 -3 -3 -3 -3 -4 -4 -5 -7 -8 -9 -10 -10 -10 -10 -10 -10 -10 -10 -11 -11 -11 -11 -12 -12 -11 -11 -11 -12 -12 -12 -12 -11 -11 -11 -11 -10 -10 -10 -10 -10
-2 -3 -3 -3 -3 -3 -4 -4 -5 -6 -6 -7 -8 -9 -10 -10 -10 -10 -10 -11 -11 -11 -12 -12 -13 -13 -13 -13 -13 -12 -12 -12 -12 -11 -11 -11 -11 -11 -10 -10 -10 -10 -10
-3 -3 -3 -3 -4 -4 -4 -5 -6 -6 -7 -7 -8 -9 -10 -10 -11 -11 -11 -11 -11 -12 -12 -13 -13 -13 -13 -12 -12 -12 -12 -11 -11 -10 -10 -10 -10 -10 -10 -10 -10 -10 -9
-3 -3 -4 -4 -4 -5 -5 -7 -8 -8 -8 -8 -9 -9 -10 -10 -11 -11 -12 -11 -11 -12 -13 -13 -13 -13 -12 -12 -12 -12 -11 -10 -10 -10 -9 -9 -10 -10 -10 -10 -9 -9 -9
-4 -4 -4 -4 -5 -6 -7 -7 -8 -9 -9 -9 -9 -9 -9 -10 -10 -10 -11 -12 -13 -13 -13 -13 -12 -12 -11 -11 -11 -11 -10 -10 -9 -9 -9 -8 -9 -9 -9 -9 -9 -9 -8
-4 -4 -5 -5 -6 -6 -7 -8 -9 -9 -9 -10 -10 -10 -10 -11 -11 -10 -11 -12 -13 -13 -13 -12 -11 -11 -11 -11 -10 -10 -10 -9 -9 -8 -8 -8 -8 -8 -8 -9 -8 -8 -8
-5 -5 -6 -6 -7 -7 -8 -9 -9 -10 -10 -10 -10 -10 -11 -12 -11 -11 -12 -12 -13 -12 -12 -12 -11 -10 -10 -10 -10 -9 -9 -8 -8 -8 -7 -7 -8 -8 -8 -8 -8 -8 -8
-5 -6 -6 -7 -7 -8 -9 -9 -10 -10 -10 -10 -10 -10 -11 -11 -11 -12 -12 -12 -12 -12 -12 -11 -11 -10 -10 -10 -9 -9 -8 -8 -7 -7 -7 -7 -7 -8 -8 -7 -7 -7 -8
-6 -6 -7 -7 -8 -8 -9 -9 -10 -10 -11 -11 -11 -11 -11 -11 -12 -12 -12 -12 -12 -11 -11 -10 -10 -10 -9 -9 -8 -8 -8 -7 -7 -7 -7 -7 -7 -7 -7 -7 -7 -7 -7
-7 -7 -7 -8 -8 -9 -10 -10 -11 -11 -11 -11 -11 -11 -12 -12 -12 -12 -12 -12 -11 -11 -10 -10 -10 -9 -9 -8 -8 -7 -7 -7 -7 -7 -7 -7 -7 -7 -7 -7 -7 -7 -7
-7 -8 -8 -9 -9 -10 -10 -11 -11 -11 -11 -11 -11 -11 -11 -12 -12 -12 -11 -11 -11 -11 -10 -10 -9 -9 -8 -8 -7 -7 -7 -7 -7 -7 -7 -7 -7 -7 -7 -7 -7 -6 -7
-8 -8 -9 -9 -10 -10 -11 -11 -11 -11 -11 -11 -11 -11 -11 -11 -11 -11 -11 -11 -11 -10 -10 -9 -9 -8 -8 -7 -7 -7 -7 -7 -7 -7 -7 -7 -7 -7 -7 -7 -6 -6 -7
Wind_Speed
10 10 10 9 9 8 6 5 4 3 3 3 4 5 6 6 7 7 7 8 8 8 7 6 7 8 7 7 8 8 9 10 16 18 14 10 10 11 13 8 12 10 14
10 10 10 9 8 7 6 5 4 3 3 3 4 6 7 7 7 8 9 9 8 8 8 7 7 9 10 9 9 9 11 11 13 18 17 13 13 13 11 9 12 14 11
10 10 9 8 7 6 5 4 3 3 3 4 5 6 7 8 8 8 8 8 8 8 8 7 7 9 11 10 12 12 10 12 10 15 18 15 14 11 11 12 14 12 17
10 9 8 7 6 6 4 3 3 3 4 5 6 7 7 8 8 8 8 9 9 8 7 7 8 9 11 12 12 10 11 13 12 14 16 15 13 9 10 13 17 10 12
10 9 7 6 5 5 4 2 2 3 5 6 6 7 8 8 8 11 9 9 9 9 8 8 9 15 20 17 16 14 14 14 15 15 16 16 13 11 12 13 18 16 12
10 8 7 6 5 4 2 2 4 5 5 6 6 7 8 10 17 21 17 10 9 9 9 9 11 14 18 24 28 27 25 20 18 17 17 17 16 14 14 16 17 19 17
9 7 6 6 5 3 3 4 4 5 5 6 7 7 8 11 20 21 22 13 9 9 10 11 13 15 19 13 21 26 23 29 26 18 17 17 18 18 19 19 18 19 20
8 7 6 5 4 3 3 3 4 4 5 5 7 8 8 11 20 21 23 11 9 9 10 11 12 12 15 20 18 17 15 14 17 15 14 15 16 15 16 18 19 18 16
8 7 6 5 4 2 2 3 3 4 5 5 6 8 8 11 18 21 22 9 9 10 10 10 13 13 24 30 22 18 15 13 21 26 26 25 29 29 23 16 15 14 17
7 6 5 4 3 2 3 3 3 4 5 7 7 7 8 9 16 22 22 8 9 10 9 9 17 22 28 30 19 14 16 18 17 17 18 21 18 19 24 16 14 15 16
7 6 5 3 2 2 3 3 5 5 6 6 7 7 8 10 16 20 22 11 11 12 12 10 11 27 29 28 25 14 21 22 14 15 15 15 14 13 13 14 14 14 15
6 5 4 3 3 4 4 5 5 5 6 6 6 7 6 8 13 17 22 21 20 12 12 11 14 27 28 27 20 22 27 22 13 13 13 14 13 14 14 15 17 16 16
6 5 4 4 4 4 4 5 5 5 5 6 6 6 7 6 10 20 22 23 23 15 12 21 24 26 24 18 21 25 21 13 13 13 14 14 12 13 14 14 15 15 16
6 4 4 3 3 4 3 4 4 5 6 6 6 8 8 7 7 8 8 11 17 15 12 15 22 22 19 19 18 16 12 13 14 13 14 13 13 12 13 13 14 14 13
5 4 3 2 3 4 4 3 5 4 7 9 6 6 9 9 13 23 18 13 13 14 15 8 9 12 11 12 13 12 13 13 14 13 14 14 15 14 14 13 12 13 12
4 2 1 2 3 3 4 5 9 11 15 16 16 15 12 17 24 24 25 25 24 24 16 11 12 12 13 14 14 15 14 14 14 14 14 14 14 14 15 14 12 12 12
2 0 2 2 3 4 4 5 7 9 13 15 18 19 19 21 23 24 24 24 21 20 11 11 12 13 13 13 13 14 14 14 13 13 13 14 13 13 13 13 13 12 12
1 1 3 3 3 4 4 5 6 7 9 8 12 17 20 22 22 22 23 19 13 12 10 11 12 13 13 13 13 13 14 14 13 13 14 13 13 13 13 13 12 12 12
1 2 3 3 3 4 4 5 6 7 8 9 8 10 18 20 20 19 18 10 11 12 12 12 12 13 13 13 13 13 14 14 14 14 13 13 13 12 12 12 11 15 12
3 6 6 4 4 4 5 5 6 6 8 9 9 10 11 11 8 11 11 10 11 12 13 13 13 13 13 13 13 13 13 14 14 13 13 13 12 12 13 12 10 10 9
3 4 8 5 4 5 5 5 5 7 7 8 8 12 18 10 9 10 10 11 11 12 13 13 13 13 13 12 12 13 15 14 14 13 13 12 13 13 11 9 9 8 7
3 3 4 4 4 5 5 5 6 7 8 9 10 12 17 10 8 10 11 11 12 12 12 13 13 13 12 12 13 13 14 15 14 14 14 13 13 12 9 7 7 7 6
3 4 4 4 4 8 8 6 6 7 8 9 10 11 11 10 10 10 11 12 12 13 13 13 13 13 13 13 13 13 14 15 15 16 16 14 11 8 7 7 7 6 5
4 4 4 4 4 5 5 6 7 8 9 10 10 10 11 11 12 12 12 12 13 13 13 13 14 17 21 17 15 14 14 16 17 15 14 9 8 7 6 6 6 5 4
4 4 4 4 5 5 6 7 7 8 9 10 10 11 11 12 12 12 11 12 13 14 17 17 14 15 20 24 22 18 22 28 20 10 8 7 8 7 6 6 5 4 3
4 4 4 4 5 5 6 7 7 8 8 9 10 10 11 11 11 11 11 11 13 15 16 15 17 21 24 20 21 25 28 22 17 15 9 6 6 6 6 4 5 4 3
Wind_Direction
120 116 115 112 112 115 120 126 126 105 67 22 353 344 335 327 325 319 307 302 299 298 299 303 295 297 301 301 296 291 285 281 289 297 298 294 283 279 286 270 277 275 284
123 117 116 116 119 122 126 126 113 80 32 353 339 336 330 325 318 308 302 307 300 297 292 293 293 311 309 306 300 291 289 281 283 293 300 300 293 289 290 286 298 296 288
123 119 117 121 126 131 130 115 83 45 358 337 337 333 325 319 310 301 295 294 293 288 285 284 289 303 307 303 298 294 291 295 289 294 296 297 294 295 300 298 292 289 294
123 122 125 133 137 136 124 97 56 9 342 338 338 332 325 315 304 300 301 298 295 288 278 274 279 291 298 299 300 295 303 302 297 295 296 297 295 295 296 304 305 292 291
127 128 135 138 132 123 110 75 21 359 352 347 343 334 328 322 321 325 319 311 307 299 285 275 282 304 309 309 309 311 307 303 304 304 303 302 303 308 306 304 303 301 290
132 134 135 132 127 122 103 47 17 3 355 353 342 328 326 335 334 336 335 324 318 313 306 301 299 305 307 314 312 308 307 308 308 305 305 306 308 305 304 302 303 302 300
131 133 134 134 130 114 71 38 13 355 348 337 326 321 319 323 339 340 338 342 334 323 314 310 313 315 316 300 301 307 307 306 306 307 306 304 303 306 305 303 301 299 297
132 135 139 136 126 97 57 21 350 335 331 316 311 312 313 326 340 340 340 345 323 311 306 302 302 304 308 311 310 311 305 306 305 305 297 299 303 302 300 301 299 297 293
135 140 140 134 122 84 23 348 330 321 316 306 304 309 314 322 337 337 336 317 310 305 298 300 310 308 310 316 320 317 318 312 312 311 311 310 309 309 308 307 303 302 299
139 138 135 128 114 57 353 329 317 310 301 305 308 311 312 312 329 335 331 313 310 310 304 299 314 318 318 323 326 325 320 315 317 319 315 311 307 304 308 306 301 297 296
130 127 123 109 75 27 356 327 314 311 311 313 310 310 311 320 331 333 330 330 320 321 321 319 315 321 325 329 330 323 314 321 325 317 312 309 309 308 306 304 299 294 293
123 119 104 72 32 21 357 328 319 319 319 318 317 316 309 312 325 326 330 331 330 325 320 316 318 326 330 330 328 321 324 329 320 314 312 313 313 310 308 305 299 294 287
114 101 76 48 26 10 345 326 323 325 323 319 318 321 321 312 316 326 329 332 331 329 317 321 327 330 330 327 322 325 329 322 317 316 315 313 309 304 306 305 302 297 291
104 86 64 39 6 348 334 321 324 325 324 322 327 328 323 319 311 312 317 323 328 326 320 326 331 329 328 325 325 324 322 317 320 316 314 311 310 310 311 311 310 312 309
96 78 47 7 333 323 325 327 335 318 326 334 325 318 326 325 323 332 335 330 333 328 334 331 327 328 327 326 324 323 323 323 321 318 315 315 315 315 314 315 311 312 312
101 75 339 308 306 318 329 333 346 342 337 337 336 334 327 324 327 333 334 336 338 338 339 331 327 325 324 324 323 322 322 321 320 317 315 314 314 315 315 316 316 317 319
125 239 293 313 323 332 335 330 327 330 332 334 334 333 329 328 331 334 336 339 340 340 338 328 325 323 321 319 318 317 317 316 315 313 312 313 312 313 315 316 319 322 323
130 345 348 332 330 325 319 312 311 318 323 321 326 328 330 332 335 339 342 342 336 338 331 326 322 319 317 316 316 315 314 314 314 313 312 312 312 313 315 316 319 322 325
54 352 346 339 329 317 310 306 307 313 319 319 317 324 332 333 338 340 344 338 331 330 328 323 318 315 314 313 312 312 311 310 309 310 309 310 312 314 313 313 317 323 329
29 3 2 350 334 322 313 311 316 320 321 320 321 326 327 332 338 337 337 331 330 327 323 319 315 312 312 311 310 310 310 309 309 308 307 309 310 311 310 311 316 320 324
19 353 355 345 321 310 307 311 319 321 319 319 319 324 332 338 331 327 329 330 328 323 319 316 312 310 309 308 309 308 307 305 304 303 304 306 308 309 307 310 314 317 322
1 339 328 319 313 310 319 326 323 319 318 319 322 324 331 333 325 326 327 326 323 318 315 312 308 306 306 307 307 307 304 302 300 300 301 302 302 301 305 313 318 323 327
348 332 324 318 315 330 335 323 322 322 322 322 321 324 326 327 327 326 325 324 320 317 315 312 308 307 308 308 305 301 296 294 293 292 293 295 298 306 315 317 321 326 333
340 327 320 319 319 321 320 319 321 323 323 321 321 322 323 324 324 324 323 320 318 315 312 311 308 307 308 312 310 304 296 292 292 292 297 313 322 321 321 322 325 334 346
338 331 328 326 324 322 320 316 314 314 317 320 320 321 321 321 321 321 320 317 315 313 312 312 311 312 313 312 309 305 303 309 321 338 337 331 328 327 327 328 334 346 13
347 341 333 326 319 316 314 312 311 311 312 316 317 317 317 318 318 317 316 315 317 316 313 313 312 314 314 313 309 310 317 334 354 355 349 331 332 336 341 341 349 9 43
Height
1469 1472 1474 1476 1478 1479 1480 1480 1479 1478 1476 1474 1472 1469 1466 1462 1458 1454 1450 1446 1441 1437 1432 1428 1423 1418 1412 1407 1401 1397 1393 1389 1380 1368 1363 1359 1355 1350 1346 1343 1339 1334 1330
1468 1470 1472 1474 1475 1477 1477 1477 1476 1475 1473 1471 1468 1465 1461 1457 1453 1449 1444 1440 1435 1430 1426 1421 1416 1411 1405 1400 1395 1390 1386 1382 1376 1365 1356 1351 1346 1341 1335 1331 1328 1324 1320
1466 1468 1470 1472 1473 1474 1474 1474 1473 1472 1470 1467 1464 1461 1457 1452 1448 1443 1438 1434 1429 1424 1420 1415 1410 1405 1399 1394 1389 1384 1380 1375 1369 1361 1351 1345 1338 1333 1327 1321 1317 1311 1306
1464 1466 1468 1470 1471 1472 1472 1471 1470 1468 1466 1463 1460 1456 1452 1447 1442 1437 1432 1428 1423 1419 1414 1410 1405 1399 1393 1388 1383 1379 1373 1367 1360 1353 1344 1337 1331 1325 1320 1312 1303 1298 1293
1462 1464 1466 1468 1469 1469 1469 1468 1466 1464 1462 1459 1456 1452 1447 1442 1437 1432 1427 1422 1417 1412 1408 1404 1399 1395 1390 1385 1379 1373 1367 1360 1353 1345 1338 1330 1323 1318 1312 1305 1296 1288 1282
1460 1462 1464 1465 1466 1466 1466 1464 1463 1461 1459 1456 1451 1447 1442 1437 1432 1427 1422 1416 1412 1407 1402 1397 1393 1388 1383 1378 1373 1367 1361 1354 1346 1339 1331 1324 1317 1311 1304 1297 1289 1280 1270
1458 1460 1462 1463 1464 1464 1462 1461 1460 1457 1455 1451 1447 1442 1437 1432 1426 1421 1416 1411 1406 1401 1396 1391 1386 1381 1376 1369 1363 1358 1353 1347 1341 1334 1325 1317 1310 1303 1297 1289 1282 1275 1266
1456 1458 1460 1461 1461 1461 1459 1458 1456 1454 1451 1447 1442 1437 1432 1426 1421 1416 1411 1405 1400 1396 1391 1386 1380 1374 1368 1363 1356 1349 1343 1337 1332 1326 1319 1310 1304 1297 1291 1283 1274 1265 1257
1454 1456 1458 1459 1458 1458 1457 1455 1453 1450 1446 1442 1437 1432 1427 1421 1416 1411 1406 1400 1395 1390 1386 1381 1376 1369 1363 1357 1350 1341 1334 1328 1322 1316 1310 1303 1296 1289 1282 1275 1267 1259 1249
1453 1455 1456 1456 1456 1455 1454 1452 1449 1445 1441 1437 1433 1428 1422 1417 1412 1407 1403 1397 1390 1384 1379 1374 1370 1364 1357 1351 1343 1335 1327 1320 1313 1305 1299 1292 1286 1279 1274 1269 1262 1254 1244
1452 1453 1454 1454 1453 1452 1451 1448 1445 1441 1437 1433 1428 1423 1418 1413 1408 1403 1400 1395 1388 1381 1374 1368 1362 1357 1351 1345 1338 1330 1323 1316 1308 1299 1291 1284 1278 1273 1266 1261 1255 1248 1240
1450 1451 1452 1452 1451 1450 1447 1444 1441 1436 1432 1427 1422 1417 1413 1409 1404 1400 1396 1391 1386 1378 1371 1364 1357 1352 1345 1338 1330 1324 1318 1311 1302 1294 1287 1280 1273 1266 1260 1253 1247 1241 1234
1449 1450 1450 1449 1448 1446 1443 1440 1436 1431 1426 1421 1416 1412 1408 1404 1400 1396 1391 1386 1380 1374 1366 1360 1353 1346 1338 1331 1325 1320 1313 1305 1298 1291 1284 1277 1270 1262 1254 1247 1239 1233 1226
1447 1448 1448 1447 1445 1443 1439 1435 1431 1426 1422 1417 1413 1408 1403 1399 1394 1390 1385 1379 1373 1367 1360 1353 1347 1339 1333 1327 1321 1314 1308 1302 1296 1289 1281 1274 1266 1258 1251 1243 1235 1227 1219
1446 1446 1445 1444 1442 1439 1436 1432 1427 1423 1420 1415 1410 1405 1400 1394 1390 1387 1381 1374 1368 1362 1355 1347 1340 1334 1327 1321 1316 1310 1304 1298 1292 1285 1278 1270 1263 1255 1248 1241 1233 1226 1219
1444 1444 1443 1441 1438 1435 1431 1429 1425 1421 1417 1413 1408 1403 1397 1393 1387 1381 1376 1370 1363 1357 1350 1343 1337 1331 1326 1319 1313 1307 1301 1295 1289 1282 1275 1268 1261 1253 1245 1238 1232 1226 1219
1442 1441 1440 1437 1434 1431 1427 1423 1420 1416 1413 1409 1404 1399 1394 1388 1383 1377 1371 1364 1358 1352 1346 1340 1335 1329 1323 1317 1311 1305 1298 1292 1286 1279 1273 1266 1259 1252 1245 1238 1231 1225 1219
1440 1438 1437 1434 1431 1428 1424 1420 1416 1411 1407 1403 1399 1395 1389 1384 1378 1372 1366 1359 1353 1348 1343 1338 1332 1327 1321 1315 1308 1302 1295 1288 1282 1276 1270 1263 1257 1251 1244 1238 1232 1226 1220
1437 1436 1433 1431 1428 1425 1421 1417 1413 1408 1403 1398 1393 1389 1384 1379 1374 1368 1362 1356 1350 1345 1340 1335 1329 1324 1318 1312 1306 1299 1292 1286 1280 1274 1268 1261 1255 1250 1244 1238 1233 1227 1222
1434 1432 1430 1427 1424 1421 1417 1413 1409 1404 1400 1395 1390 1385 1379 1374 1368 1363 1358 1353 1349 1343 1337 1332 1326 1321 1315 1309 1302 1296 1290 1283 1278 1272 1266 1260 1254 1249 1244 1239 1234 1229 1224
1432 1429 1427 1424 1421 1417 1413 1409 1405 1401 1397 1392 1387 1382 1378 1372 1366 1361 1356 1351 1346 1340 1335 1329 1324 1318 1312 1306 1299 1293 1287 1281 1275 1269 1263 1258 1253 1248 1243 1239 1235 1230 1226
1428 1426 1423 1420 1417 1413 1410 1406 1402 1398 1393 1389 1383 1379 1374 1369 1363 1358 1353 1348 1343 1338 1333 1327 1321 1315 1309 1303 1296 1290 1284 1278 1273 1267 1261 1256 1251 1247 1243 1239 1235 1231 1228
1425 1422 1420 1416 1413 1410 1406 1403 1398 1394 1390 1385 1380 1375 1370 1365 1360 1355 1350 1346 1340 1336 1331 1325 1319 1313 1307 1300 1294 1288 1282 1276 1270 1264 1258 1254 1250 1247 1243 1240 1236 1233 1230
1421 1418 1416 1412 1409 1406 1402 1399 1395 1391 1386 1381 1376 1371 1367 1362 1357 1352 1348 1343 1338 1333 1328 1323 1317 1310 1304 1298 1292 1287 1281 1275 1268 1262 1259 1255 1251 1247 1243 1240 1237 1235 1232
1418 1415 1412 1408 1405 1402 1398 1395 1391 1387 1382 1378 1373 1368 1363 1359 1354 1350 1345 1340 1336 1331 1326 1320 1314 1308 1302 1296 1291 1285 1279 1273 1268 1263 1258 1254 1251 1247 1244 1242 1239 1237 1235
1414 1411 1408 1404 1401 1398 1394 1390 1386 1382 1378 1373 1369 1364 1360 1355 1351 1347 1342 1338 1333 1328 1323 1318 1312 1306 1300 1295 1289 1283 1278 1273 1267 1262 1258 1255 1251 1248 1246 1243 1241 1239 1238